Regional Weather Roundup
Issued by NWS

Home | Current Version | Previous Version | Text Only | Print | Product List | Glossary On
Versions: 1 2 3 4 5 6 7 8 9 10 11 12 13 14 15 16 17 18 19 20 21 22 23 24 25 26 27 28 29 30 31 32 33 34 35 36 37 38 39 40 41 42 43 44 45 46 47 48 49 50
000
ASUS43 KMKX 241300
RWRWI

WISCONSIN REGIONAL WEATHER ROUNDUP
NATIONAL WEATHER SERVICE MILWAUKEE/SULLIVAN WI
800 AM CDT TUE MAY 24 2016

NOTE: "FAIR" INDICATES FEW OR NO CLOUDS BELOW 12,000 FEET WITH NO
SIGNIFICANT WEATHER AND/OR OBSTRUCTIONS TO VISIBILITY.

WIZ001-002-006>008-014>016-023>028-241400-
NORTHWEST WISCONSIN

CITY           SKY/WX    TMP DP  RH WIND       PRES   REMARKS
SUPERIOR ARPT  LGT RAIN  56  56 100 N3        29.83R
ASHLAND        CLOUDY    62  62 100 E5        29.84F
HAYWARD        CLOUDY    65  60  84 S8        29.84S
SIREN          CLOUDY    64  62  93 S5        29.83
CUMBERLAND     CLOUDY    63  59  88 S7        29.84S
RICE LAKE      CLOUDY    64  60  87 SE7       29.86S
CHETEK         PTSUNNY   63  62  96 CALM      29.85F
LADYSMITH      RAIN      64  61  91 S9        29.89R
EAU CLAIRE     NOT AVBL
MENOMONIE      DRIZZLE   64  64  99 SE3       29.85F
NEW RICHMOND   MOSUNNY   67  61  81 S7        29.84S
OSCEOLA        CLOUDY    66  66  99 S6        29.85F
$$

WIZ003>005-009-010-017-018-241400-
NORTH CENTRAL WISCONSIN

CITY           SKY/WX    TMP DP  RH WIND       PRES   REMARKS
MANITOWISH WTR CLOUDY    61  61 100 S3        29.89S
ARBOR VITAE    DRIZZLE   62  60  94 S5        29.89S
WOODRUFF       DRIZZLE   62  60  94 S5        29.89S
RHINELANDER    LGT RAIN  63  61  93 SW5       29.92R
EAGLE RIVER    LGT RAIN  61  61  99 CALM      29.90S
LAND O LAKES   HVY RAIN  61  60  98 CALM      29.91R
PHILLIPS       CLOUDY    64  62  94 S9        29.88R
TOMAHAWK       LGT RAIN  61  60  97 CALM      29.91S
MEDFORD        LGT RAIN  63  62  98 S6        29.91R
MERRILL        LGT RAIN N/A N/A N/A S5        29.92R
$$

WIZ029-030-035-036-043>047-241400-
CENTRAL WISCONSIN

CITY           SKY/WX    TMP DP  RH WIND       PRES   REMARKS
WAUSAU         LGT RAIN  61  56  83 CALM      29.90S
MOSINEE        PTSUNNY   57  55  94 CALM      29.92R
MARSHFIELD     CLOUDY    63  55  75 CALM      29.89S
STEVENS POINT  CLOUDY    59  54  83 CALM      29.91S
WAUPACA        CLOUDY    65  53  63 CALM      29.92R
WAUTOMA        CLOUDY    63  51  65 CALM      29.92S
WISC RAPIDS    CLOUDY    64  54  69 S3        29.91S
CAMP DOUGLAS   NOT AVBL
$$

WIZ011>013-019>022-031-037>040-048>050-241400-
NORTHEAST WISCONSIN

CITY           SKY/WX    TMP DP  RH WIND       PRES   REMARKS
ANTIGO         LGT RAIN  61  59  94 CALM      29.93R
SHAWANO        CLOUDY    66  51  59 CALM      29.91F
OCONTO         CLOUDY    62  52  70 CALM      29.90S
STURGEON BAY   NOT AVBL
GREEN BAY      SUNNY     68  51  54 S6        29.91S
MANITOWOC      NOT AVBL
APPLETON       PTSUNNY   66  48  52 S7        29.91R
CLINTONVILLE   CLOUDY    63  50  63 CALM      29.91S
OSHKOSH        SUNNY     67  51  56 S9        29.92R
$$

WIZ032>034-041-042-053>061-241400-
SOUTHWEST WISCONSIN

CITY           SKY/WX    TMP DP  RH WIND       PRES   REMARKS
LA CROSSE      CLOUDY    71  55  56 SE7       29.86S
SPARTA         CLOUDY    69  56  62 CALM      29.87F
VIROQUA        CLOUDY    68  55  64 S8        29.90S
BOSCOBEL       MOSUNNY   73  57  57 SW8       29.89F
PRAIRIE DU CHI CLOUDY    70  55  59 CALM      29.88F
PLATTEVILLE    PTSUNNY   68  53  59 S6        29.92F
$$

WIZ056-057-062-063-064-067-068-241400-
SOUTH CENTRAL WISCONSIN

CITY           SKY/WX    TMP DP  RH WIND       PRES   REMARKS
REEDSBURG      MOSUNNY   67  53  60 S5        29.91S
BARABOO/DELLS  SUNNY     68  50  52 S7        29.91S
LONE ROCK      NOT AVBL
MINERAL POINT  SUNNY     66  52  59 S6        29.93F
MADISON        PTSUNNY   67  50  54 S8        29.93S
MIDDLETON      PTSUNNY   67  50  53 SW9       29.94R
WATERTOWN      SUNNY     65  51  60 S8        29.94S
MONROE         SUNNY     64  52  63 S10       29.95S
JANESVILLE     MOSUNNY   70  52  52 SW5       29.95S
$$

WIZ051-052-058>065-066-070>072-241400-
SOUTHEAST WISCONSIN

CITY           SKY/WX    TMP DP  RH WIND       PRES   REMARKS
MILWAUKEE      MOSUNNY   68  50  52 SW8       29.98R
WAUKESHA       SUNNY     63  48  59 S5        29.99R
MILWAUKEE/TIMM SUNNY     66  46  48 CALM      29.98R
RACINE         MOSUNNY   68  50  52 SW10      30.00R
BURLINGTON     SUNNY     62  50  66 SW3       29.98R
KENOSHA        SUNNY     68  52  56 SW8       29.99R
FOND DU LAC    SUNNY     69  51  52 S8        29.93S
SHEBOYGAN      MOSUNNY   67  49  52 SW8       29.95R
WEST BEND      SUNNY     64  50  59 S6        29.96S
JUNEAU         SUNNY     64  51  61 S6        29.95S
$$

LSZ147-162-241400-
LAKE SUPERIOR

STATION/POSITION TIME  TEMP    WIND        PRES    WAVE
                       AIR SEA DIR/SP/G            HT/PER
                 (UTC) (F)     (DEG/KT/KT) (MB)    (FT/S)
W MID LAKE BUOY  1150   50 38  210/  4/  6 1010.6R   1/ 3
DEVILS ISLAND    1200   59     190/  7/  8 1010.8R
SAXON HARBOR     1240   53      30/  1/  5 1010.5R
$$

LMZ867-665-643>646-241400-
LAKE MICHIGAN

STATION/POSITION TIME  TEMP    WIND        PRES    WAVE
                       AIR SEA DIR/SP/G            HT/PER
                 (UTC) (F)     (DEG/KT/KT) (MB)    (FT/S)
CHAMBERS ISLAND  1200   63     190/  6/ 10 1012.5R
N MID LAKE BUOY  1150   47 44  200/ 12/ 14 1012.3R   2/ 4
NORTHPORT PIER   1200   68     240/  3/  8 1012.5R
SISTER BAY       1149   62        CALM       N/A
ALGOMA LAKESHORE 1216          210/  7/  8   N/A
KEWAUNEE LAKESHO 1200   53     170/  2/  3 1012.3R
SHEBOYGAN LAKESH 1200   58     180/  8/  8 1014.1R
PORT WASHINGTON  1200   59      CALM  /  1 1015.2R
S MID LAKE BUOY  1150   52 47  190/ 10/ 12 1014.9R   1
KENOSHA   LAKESH 1200   66     230/  7/ 10 1014.9R
$$

TC  - TEMPERATURE IN CELSIUS
VSB - VISIBILITY IN STATUTE MILES
WCI - WIND CHILL INDEX
HX  - HEAT INDEX





USA.gov is the U.S. government's official web portal to all federal, state and local government web resources and services.